Flag for Norway Weather past 2 weeks in Nærbø, Norway

Now
65 °F

Mild.


Feels Like: 65 °F
Forecast: 64 / 75 °F
Wind: 2 mph from North

Location: Obrestad

Current Time: Jul 24, 2014 at 2:17:09 AM

Latest Report: Jul 24, 2014 at 1:00 AM


Visibility: N/A

Pressure: 30.24 "Hg

Humidity: 94%

Dew point: 63 °F

Location of NærbøLocation

Historic Weather in Nærbø — Graph

°F

Nærbø temperature yesterday

Maximum temperature yesterday: 71 °F (at 6:00 PM)
Minimum temperature yesterday: 64 °F (at 6:00 AM)
Average temperature yesterday: 68 °F

Past Weeks' High & Low Weather Summary

 TemperatureHumidityPressure
High79 °F (Jul 20, 1:00 PM)96% (Jul 15, 11:00 AM)30.31 "Hg (Jul 15, 11:00 AM)
Low56 °F (Jul 19, 4:00 AM)39% (Jul 20, 1:00 PM)29.64 "Hg (Jul 14, 6:00 AM)
Average65 °F77%30.02 "Hg
* Reported Jul 9 1:00 AM — Jul 24 1:00 AM, Nærbø, Weather by CustomWeather, © 2014

Note: Actual official high and low records may vary slightly from our data, if they occured in-between our weather recording intervals... More about our weather records

Advertising

Nærbø weather history for previous 24 hours

 ConditionsComfort  
Time TempWeatherWind HumidityBarometerVisibility
1:00 AM
Jul 24
65 °FMild.2 mph94%30.24 "HgN/A
12:00 AM66 °FMild.2 mph93%30.24 "HgN/A
11:00 PM
Jul 23
67 °FMild.1 mph92%30.25 "HgN/A
10:00 PM68 °FMild.2 mph89%30.25 "HgN/A
9:00 PM70 °FMild.1 mph85%30.25 "HgN/A
8:00 PM70 °FMild.2 mph84%30.26 "HgN/A
7:00 PM71 °FMild.2 mph83%30.27 "HgN/A
6:00 PM71 °FMild.2 mph82%30.27 "HgN/A
5:00 PM70 °FMild.3 mph85%30.27 "HgN/A
4:00 PM69 °FMild.5 mph88%30.28 "HgN/A
2:00 PM70 °FMild.5 mph87%30.29 "HgN/A
6:00 AM64 °FMild.3 mph83%30.29 "HgN/A
5:00 AM65 °FMild.5 mph76%30.29 "HgN/A
4:00 AM66 °FMild.5 mph75%30.29 "HgN/A
3:00 AM66 °FMild.5 mph74%30.30 "HgN/A
2:00 AM65 °FMild.3 mph85%30.31 "HgN/A
Weather by CustomWeather, © 2014

See weather overviewHow to use our weather pages